Time,TemperatureF,DewpointF,PressureIn,WindDirection,WindDirectionDegrees,WindSpeedMPH,WindSpeedGustMPH,Humidity,HourlyPrecipIn,Conditions,Clouds,dailyrainin,SoftwareType,DateUTC
2013-11-24 00:02:00,42.4,35.8,30.22,NNW,338,3.0,4.0,77,0.00,,,0.00,meteohub,2013-11-24 00:02:00,
2013-11-24 00:07:00,42.4,35.8,30.22,NNW,338,4.0,6.0,77,0.00,,,0.00,meteohub,2013-11-24 00:07:00,
2013-11-24 00:12:00,42.6,36.0,30.22,NE,45,0.0,6.0,77,0.00,,,0.00,meteohub,2013-11-24 00:12:00,
2013-11-24 00:17:00,42.6,36.0,30.22,North,0,0.0,6.0,77,0.00,,,0.00,meteohub,2013-11-24 00:17:00,
2013-11-24 00:22:00,42.4,35.8,30.22,East,90,0.0,5.0,77,0.00,,,0.00,meteohub,2013-11-24 00:22:00,
2013-11-24 00:27:00,42.4,35.8,30.22,North,0,0.0,5.0,77,0.00,,,0.00,meteohub,2013-11-24 00:27:00,
2013-11-24 00:33:00,42.4,35.8,30.22,North,0,3.0,6.0,77,0.00,,,0.00,meteohub,2013-11-24 00:33:00,
2013-11-24 00:39:00,42.4,35.8,30.22,NNW,338,0.0,6.0,77,0.00,,,0.00,meteohub,2013-11-24 00:39:00,
2013-11-24 00:45:00,42.4,35.8,30.22,NNW,338,2.0,7.0,77,0.00,,,0.00,meteohub,2013-11-24 00:45:00,
2013-11-24 00:51:00,42.4,35.8,30.22,NNE,22,4.0,5.0,77,0.00,,,0.00,meteohub,2013-11-24 00:51:00,
2013-11-24 00:57:00,42.4,35.8,30.22,North,0,4.0,7.0,77,0.00,,,0.00,meteohub,2013-11-24 00:57:00,
2013-11-24 01:02:00,42.4,35.8,30.22,North,0,0.0,7.0,77,0.00,,,0.00,meteohub,2013-11-24 01:02:00,
2013-11-24 01:07:00,42.4,35.8,30.22,NW,315,3.0,7.0,77,0.00,,,0.00,meteohub,2013-11-24 01:07:00,
2013-11-24 01:12:00,42.4,35.8,30.22,NNE,22,3.0,6.0,77,0.00,,,0.00,meteohub,2013-11-24 01:12:00,
2013-11-24 01:17:00,42.4,35.8,30.22,North,0,3.0,7.0,77,0.00,,,0.00,meteohub,2013-11-24 01:17:00,
2013-11-24 01:22:00,42.6,36.0,30.22,NNE,22,5.0,7.0,77,0.00,,,0.00,meteohub,2013-11-24 01:22:00,
2013-11-24 01:27:00,42.6,36.0,30.22,North,0,0.0,7.0,77,0.00,,,0.00,meteohub,2013-11-24 01:27:00,
2013-11-24 01:32:00,42.4,35.8,30.22,ENE,68,0.0,6.0,77,0.00,,,0.00,meteohub,2013-11-24 01:32:00,
2013-11-24 01:37:00,42.4,35.8,30.22,NW,315,4.0,6.0,77,0.00,,,0.00,meteohub,2013-11-24 01:37:00,
2013-11-24 01:42:00,42.4,35.8,30.22,North,0,0.0,6.0,77,0.00,,,0.00,meteohub,2013-11-24 01:42:00,
2013-11-24 01:47:00,42.4,35.8,30.22,North,0,2.0,8.0,77,0.00,,,0.00,meteohub,2013-11-24 01:47:00,
2013-11-24 01:52:00,42.4,36.1,30.22,North,0,3.0,8.0,78,0.00,,,0.00,meteohub,2013-11-24 01:52:00,
2013-11-24 01:57:00,42.4,36.1,30.22,NNW,338,4.0,6.0,78,0.00,,,0.00,meteohub,2013-11-24 01:57:00,
2013-11-24 02:02:00,42.6,36.3,30.22,NNW,338,4.0,6.0,78,0.00,,,0.00,meteohub,2013-11-24 02:02:00,
2013-11-24 02:07:00,42.6,36.3,30.22,WNW,292,4.0,6.0,78,0.00,,,0.00,meteohub,2013-11-24 02:07:00,
2013-11-24 02:12:00,42.6,36.3,30.22,NNW,338,0.0,5.0,78,0.00,,,0.00,meteohub,2013-11-24 02:12:00,
2013-11-24 02:17:00,42.6,36.3,30.22,NNW,338,4.0,5.0,78,0.00,,,0.00,meteohub,2013-11-24 02:17:00,
2013-11-24 02:22:00,42.6,36.3,30.22,WNW,292,3.0,5.0,78,0.00,,,0.00,meteohub,2013-11-24 02:22:00,
2013-11-24 02:27:00,42.6,36.3,30.22,NNE,22,0.0,5.0,78,0.00,,,0.00,meteohub,2013-11-24 02:27:00,
2013-11-24 02:32:00,42.6,36.5,30.22,South,180,0.0,5.0,79,0.00,,,0.00,meteohub,2013-11-24 02:32:00,
2013-11-24 02:37:00,42.4,36.3,30.22,NNW,338,0.0,5.0,79,0.00,,,0.00,meteohub,2013-11-24 02:37:00,
2013-11-24 02:42:00,42.4,36.3,30.22,North,0,0.0,4.0,79,0.00,,,0.00,meteohub,2013-11-24 02:42:00,
2013-11-24 02:47:00,42.4,36.7,30.22,North,0,0.0,5.0,80,0.00,,,0.00,meteohub,2013-11-24 02:47:00,
2013-11-24 02:52:00,42.4,37.0,30.25,North,0,3.0,5.0,81,0.00,,,0.00,meteohub,2013-11-24 02:52:00,
2013-11-24 02:57:00,42.4,37.0,30.25,NNE,22,4.0,5.0,81,0.00,,,0.00,meteohub,2013-11-24 02:57:00,
2013-11-24 03:02:00,42.4,37.4,30.25,North,0,4.0,4.0,82,0.00,,,0.00,meteohub,2013-11-24 03:02:00,
2013-11-24 03:07:00,42.4,37.4,30.22,NNE,22,0.0,4.0,82,0.00,,,0.00,meteohub,2013-11-24 03:07:00,
2013-11-24 03:12:00,42.6,37.6,30.22,North,0,3.0,7.0,82,0.00,,,0.00,meteohub,2013-11-24 03:12:00,
2013-11-24 03:17:00,42.6,37.6,30.22,North,0,0.0,8.0,82,0.00,,,0.00,meteohub,2013-11-24 03:17:00,
2013-11-24 03:22:00,42.6,37.6,30.22,NNE,22,4.0,8.0,82,0.00,,,0.00,meteohub,2013-11-24 03:22:00,
2013-11-24 03:27:00,42.6,37.6,30.22,NNW,338,2.0,8.0,82,0.00,,,0.00,meteohub,2013-11-24 03:27:00,
2013-11-24 03:32:00,42.6,37.6,30.22,NE,45,4.0,6.0,82,0.00,,,0.00,meteohub,2013-11-24 03:32:00,
2013-11-24 03:37:00,42.6,37.6,30.22,North,0,2.0,6.0,82,0.00,,,0.00,meteohub,2013-11-24 03:37:00,
2013-11-24 03:42:00,42.6,37.6,30.22,North,0,0.0,6.0,82,0.00,,,0.00,meteohub,2013-11-24 03:42:00,
2013-11-24 03:47:00,42.6,37.6,30.22,North,0,0.0,6.0,82,0.00,,,0.00,meteohub,2013-11-24 03:47:00,
2013-11-24 03:52:00,42.6,37.8,30.25,NE,45,3.0,6.0,83,0.00,,,0.00,meteohub,2013-11-24 03:52:00,
2013-11-24 03:57:00,42.6,37.8,30.25,North,0,3.0,6.0,83,0.00,,,0.00,meteohub,2013-11-24 03:57:00,
2013-11-24 04:02:00,42.6,37.6,30.25,North,0,0.0,6.0,82,0.00,,,0.00,meteohub,2013-11-24 04:02:00,
2013-11-24 04:07:00,42.6,37.6,30.22,North,0,4.0,8.0,82,0.00,,,0.00,meteohub,2013-11-24 04:07:00,
2013-11-24 04:12:00,42.6,37.6,30.22,North,0,3.0,8.0,82,0.00,,,0.00,meteohub,2013-11-24 04:12:00,
2013-11-24 04:17:00,42.6,37.6,30.22,West,270,0.0,8.0,82,0.00,,,0.00,meteohub,2013-11-24 04:17:00,
2013-11-24 04:22:00,42.6,37.6,30.25,West,270,2.0,6.0,82,0.00,,,0.00,meteohub,2013-11-24 04:22:00,
2013-11-24 04:27:00,42.6,37.6,30.25,North,0,0.0,7.0,82,0.00,,,0.00,meteohub,2013-11-24 04:27:00,
2013-11-24 04:32:00,42.6,37.6,30.25,North,0,4.0,7.0,82,0.00,,,0.00,meteohub,2013-11-24 04:32:00,
2013-11-24 04:37:00,42.6,37.6,30.25,North,0,2.0,7.0,82,0.00,,,0.00,meteohub,2013-11-24 04:37:00,
2013-11-24 04:42:00,42.6,37.6,30.25,WNW,292,0.0,6.0,82,0.00,,,0.00,meteohub,2013-11-24 04:42:00,
2013-11-24 04:47:00,42.4,37.4,30.25,NNE,22,0.0,6.0,82,0.00,,,0.00,meteohub,2013-11-24 04:47:00,
2013-11-24 04:52:00,42.4,37.4,30.25,North,0,2.0,5.0,82,0.00,,,0.00,meteohub,2013-11-24 04:52:00,
2013-11-24 04:57:00,42.4,37.4,30.25,NNE,22,0.0,5.0,82,0.00,,,0.00,meteohub,2013-11-24 04:57:00,
2013-11-24 05:01:00,42.4,37.4,30.25,North,0,2.0,4.0,82,0.00,,,0.00,meteohub,2013-11-24 05:01:00,
2013-11-24 05:03:00,42.4,37.4,30.25,NNE,22,0.0,4.0,82,0.00,,,0.00,meteohub,2013-11-24 05:03:00,
2013-11-24 05:07:00,42.4,37.4,30.25,North,0,4.0,4.0,82,0.00,,,0.00,meteohub,2013-11-24 05:07:00,
2013-11-24 05:11:00,42.4,37.0,30.25,NNE,22,3.0,5.0,81,0.00,,,0.00,meteohub,2013-11-24 05:11:00,
2013-11-24 05:17:00,42.4,37.0,30.25,North,0,2.0,5.0,81,0.00,,,0.00,meteohub,2013-11-24 05:17:00,
2013-11-24 05:22:00,42.6,36.9,30.25,NNE,22,0.0,8.0,80,0.00,,,0.00,meteohub,2013-11-24 05:22:00,
2013-11-24 05:23:00,42.4,36.7,30.25,WNW,292,3.0,8.0,80,0.00,,,0.00,meteohub,2013-11-24 05:23:00,
2013-11-24 05:29:00,42.6,36.5,30.25,North,0,4.0,8.0,79,0.00,,,0.00,meteohub,2013-11-24 05:29:00,
2013-11-24 05:35:00,42.6,36.3,30.25,North,0,3.0,8.0,78,0.00,,,0.00,meteohub,2013-11-24 05:35:00,
2013-11-24 05:37:00,42.6,36.3,30.25,North,0,4.0,5.0,78,0.00,,,0.00,meteohub,2013-11-24 05:37:00,
2013-11-24 05:43:00,42.6,36.3,30.25,North,0,0.0,5.0,78,0.00,,,0.00,meteohub,2013-11-24 05:43:00,
2013-11-24 05:49:00,42.4,36.1,30.25,NNW,338,0.0,5.0,78,0.00,,,0.00,meteohub,2013-11-24 05:49:00,
2013-11-24 05:55:00,42.4,35.8,30.25,North,0,3.0,8.0,77,0.00,,,0.00,meteohub,2013-11-24 05:55:00,
2013-11-24 06:01:00,42.6,36.0,30.25,North,0,3.0,8.0,77,0.00,,,0.00,meteohub,2013-11-24 06:01:00,
2013-11-24 06:07:00,42.6,36.0,30.25,NE,45,4.0,8.0,77,0.00,,,0.00,meteohub,2013-11-24 06:07:00,
2013-11-24 06:12:00,42.6,36.0,30.25,NNE,22,0.0,8.0,77,0.00,,,0.00,meteohub,2013-11-24 06:12:00,
2013-11-24 06:17:00,42.6,36.0,30.25,North,0,3.0,8.0,77,0.00,,,0.00,meteohub,2013-11-24 06:17:00,
2013-11-24 06:22:00,42.6,36.0,30.25,North,0,0.0,5.0,77,0.00,,,0.00,meteohub,2013-11-24 06:22:00,
2013-11-24 06:27:00,42.4,36.1,30.25,NE,45,0.0,5.0,78,0.00,,,0.00,meteohub,2013-11-24 06:27:00,
2013-11-24 06:32:00,42.4,36.1,30.25,North,0,3.0,5.0,78,0.00,,,0.00,meteohub,2013-11-24 06:32:00,
2013-11-24 06:37:00,42.4,36.1,30.25,NNE,22,0.0,6.0,78,0.00,,,0.00,meteohub,2013-11-24 06:37:00,
2013-11-24 06:42:00,42.4,36.1,30.25,North,0,0.0,6.0,78,0.00,,,0.00,meteohub,2013-11-24 06:42:00,
2013-11-24 06:47:00,42.4,36.1,30.25,NNE,22,2.0,6.0,78,0.00,,,0.00,meteohub,2013-11-24 06:47:00,
2013-11-24 06:52:00,42.4,36.1,30.25,North,0,3.0,6.0,78,0.00,,,0.00,meteohub,2013-11-24 06:52:00,
2013-11-24 06:57:00,42.4,36.1,30.25,North,0,0.0,6.0,78,0.00,,,0.00,meteohub,2013-11-24 06:57:00,
2013-11-24 07:02:00,42.6,36.3,30.25,North,0,3.0,6.0,78,0.00,,,0.00,meteohub,2013-11-24 07:02:00,
2013-11-24 07:07:00,42.6,36.3,30.25,NNW,338,0.0,6.0,78,0.00,,,0.00,meteohub,2013-11-24 07:07:00,
2013-11-24 07:12:00,42.6,36.3,30.25,North,0,2.0,6.0,78,0.00,,,0.00,meteohub,2013-11-24 07:12:00,
2013-11-24 07:17:00,42.6,36.3,30.25,North,0,0.0,5.0,78,0.00,,,0.00,meteohub,2013-11-24 07:17:00,
2013-11-24 07:22:00,42.6,36.3,30.25,North,0,0.0,4.0,78,0.00,,,0.00,meteohub,2013-11-24 07:22:00,
2013-11-24 07:27:00,42.6,36.3,30.25,NW,315,3.0,4.0,78,0.00,,,0.00,meteohub,2013-11-24 07:27:00,
2013-11-24 07:32:00,42.6,36.3,30.25,North,0,3.0,4.0,78,0.00,,,0.00,meteohub,2013-11-24 07:32:00,
2013-11-24 07:37:00,42.8,36.5,30.28,NNE,22,3.0,4.0,78,0.00,,,0.00,meteohub,2013-11-24 07:37:00,
2013-11-24 07:42:00,42.8,36.5,30.28,NNE,22,3.0,4.0,78,0.00,,,0.00,meteohub,2013-11-24 07:42:00,
2013-11-24 07:47:00,43.0,36.7,30.28,North,0,4.0,5.0,78,0.00,,,0.00,meteohub,2013-11-24 07:47:00,
2013-11-24 07:52:00,43.0,36.7,30.28,NNE,22,0.0,5.0,78,0.00,,,0.00,meteohub,2013-11-24 07:52:00,
2013-11-24 07:57:00,43.0,36.7,30.28,North,0,0.0,7.0,78,0.00,,,0.00,meteohub,2013-11-24 07:57:00,
2013-11-24 08:02:00,43.0,36.9,30.28,NE,45,0.0,7.0,79,0.00,,,0.00,meteohub,2013-11-24 08:02:00,
2013-11-24 08:07:00,43.2,36.9,30.28,WNW,292,0.0,5.0,78,0.00,,,0.00,meteohub,2013-11-24 08:07:00,
2013-11-24 08:12:00,43.0,36.7,30.28,NNE,22,2.0,5.0,78,0.00,,,0.00,meteohub,2013-11-24 08:12:00,
2013-11-24 08:17:00,43.0,36.9,30.28,NNW,338,3.0,5.0,79,0.00,,,0.00,meteohub,2013-11-24 08:17:00,
2013-11-24 08:22:00,43.0,36.9,30.28,NNW,338,0.0,5.0,79,0.00,,,0.00,meteohub,2013-11-24 08:22:00,
2013-11-24 08:27:00,43.2,37.0,30.28,NNE,22,4.0,6.0,79,0.00,,,0.00,meteohub,2013-11-24 08:27:00,
2013-11-24 08:32:00,43.3,37.6,30.28,North,0,0.0,6.0,80,0.00,,,0.00,meteohub,2013-11-24 08:32:00,
2013-11-24 08:37:00,43.5,37.8,30.28,North,0,0.0,6.0,80,0.00,,,0.00,meteohub,2013-11-24 08:37:00,
2013-11-24 08:42:00,43.5,37.8,30.28,NNW,338,3.0,6.0,80,0.00,,,0.00,meteohub,2013-11-24 08:42:00,
2013-11-24 08:47:00,43.7,37.9,30.28,North,0,3.0,5.0,80,0.00,,,0.00,meteohub,2013-11-24 08:47:00,
2013-11-24 08:52:00,43.9,38.1,30.28,North,0,0.0,6.0,80,0.00,,,0.00,meteohub,2013-11-24 08:52:00,
2013-11-24 08:57:00,44.1,38.7,30.28,NW,315,3.0,6.0,81,0.00,,,0.00,meteohub,2013-11-24 08:57:00,
2013-11-24 09:02:00,44.1,38.7,30.28,North,0,3.0,6.0,81,0.00,,,0.00,meteohub,2013-11-24 09:02:00,
2013-11-24 09:07:00,44.2,38.8,30.28,NNW,338,5.0,6.0,81,0.00,,,0.00,meteohub,2013-11-24 09:07:00,
2013-11-24 09:12:00,44.4,39.2,30.28,NNW,338,2.0,7.0,82,0.00,,,0.00,meteohub,2013-11-24 09:12:00,
2013-11-24 09:17:00,44.2,39.0,30.28,North,0,0.0,7.0,82,0.00,,,0.00,meteohub,2013-11-24 09:17:00,
2013-11-24 09:22:00,44.4,39.6,30.28,NNE,22,3.0,6.0,83,0.00,,,0.00,meteohub,2013-11-24 09:22:00,
2013-11-24 09:27:00,44.4,39.6,30.28,NNW,338,0.0,8.0,83,0.00,,,0.00,meteohub,2013-11-24 09:27:00,
2013-11-24 09:32:00,44.2,39.7,30.28,NNE,22,0.0,8.0,84,0.00,,,0.00,meteohub,2013-11-24 09:32:00,
2013-11-24 09:37:00,44.2,40.1,30.31,NNE,22,6.0,8.0,85,0.00,,,0.00,meteohub,2013-11-24 09:37:00,
2013-11-24 09:42:00,44.4,40.5,30.31,North,0,4.0,6.0,86,0.00,,,0.00,meteohub,2013-11-24 09:42:00,
2013-11-24 09:47:00,44.6,40.6,30.31,NNE,22,4.0,6.0,86,0.00,,,0.00,meteohub,2013-11-24 09:47:00,
2013-11-24 09:52:00,44.8,41.2,30.28,NW,315,3.0,6.0,87,0.00,,,0.00,meteohub,2013-11-24 09:52:00,
2013-11-24 09:57:00,45.0,41.4,30.28,West,270,3.0,8.0,87,0.00,,,0.00,meteohub,2013-11-24 09:57:00,
2013-11-24 10:02:00,45.1,41.5,30.28,North,0,3.0,8.0,87,0.00,,,0.00,meteohub,2013-11-24 10:02:00,
2013-11-24 10:07:00,45.3,41.7,30.28,NNW,338,3.0,8.0,87,0.00,,,0.00,meteohub,2013-11-24 10:07:00,
2013-11-24 10:12:00,45.5,41.9,30.28,SE,135,4.0,6.0,87,0.00,,,0.00,meteohub,2013-11-24 10:12:00,
2013-11-24 10:17:00,45.5,41.9,30.28,NNE,22,0.0,6.0,87,0.00,,,0.00,meteohub,2013-11-24 10:17:00,
2013-11-24 10:22:00,45.9,41.9,30.28,North,0,3.0,6.0,86,0.00,,,0.00,meteohub,2013-11-24 10:22:00,
2013-11-24 10:27:00,46.0,42.1,30.28,North,0,2.0,6.0,86,0.00,,,0.00,meteohub,2013-11-24 10:27:00,
2013-11-24 10:32:00,46.2,41.9,30.28,North,0,0.0,6.0,85,0.00,,,0.00,meteohub,2013-11-24 10:32:00,
2013-11-24 10:37:00,46.2,41.7,30.31,North,0,0.0,6.0,84,0.00,,,0.00,meteohub,2013-11-24 10:37:00,
2013-11-24 10:42:00,46.2,41.7,30.31,NW,315,6.0,6.0,84,0.00,,,0.00,meteohub,2013-11-24 10:42:00,
2013-11-24 10:47:00,46.4,41.5,30.31,North,0,3.0,6.0,83,0.00,,,0.00,meteohub,2013-11-24 10:47:00,
2013-11-24 10:52:00,46.8,41.9,30.31,NNW,338,0.0,6.0,83,0.00,,,0.00,meteohub,2013-11-24 10:52:00,
2013-11-24 10:57:00,46.8,41.5,30.31,South,180,4.0,8.0,82,0.00,,,0.00,meteohub,2013-11-24 10:57:00,
2013-11-24 11:02:00,46.8,41.2,30.31,NNE,22,3.0,8.0,81,0.00,,,0.00,meteohub,2013-11-24 11:02:00,
2013-11-24 11:07:00,46.8,41.2,30.31,North,0,7.0,8.0,81,0.00,,,0.00,meteohub,2013-11-24 11:07:00,
2013-11-24 11:12:00,46.8,41.2,30.31,NNE,22,4.0,7.0,81,0.00,,,0.00,meteohub,2013-11-24 11:12:00,
2013-11-24 11:17:00,46.8,41.2,30.31,North,0,4.0,8.0,81,0.00,,,0.00,meteohub,2013-11-24 11:17:00,
2013-11-24 11:22:00,46.8,41.2,30.31,North,0,2.0,8.0,81,0.00,,,0.00,meteohub,2013-11-24 11:22:00,
2013-11-24 11:27:00,46.8,41.2,30.31,WNW,292,3.0,8.0,81,0.00,,,0.00,meteohub,2013-11-24 11:27:00,
2013-11-24 11:32:00,46.6,41.0,30.31,North,0,6.0,8.0,81,0.00,,,0.00,meteohub,2013-11-24 11:32:00,
2013-11-24 11:37:00,46.6,41.4,30.31,WNW,292,3.0,9.0,82,0.00,,,0.00,meteohub,2013-11-24 11:37:00,
2013-11-24 11:42:00,46.8,41.9,30.31,NNE,22,0.0,10.0,83,0.00,,,0.00,meteohub,2013-11-24 11:42:00,
2013-11-24 11:47:00,46.8,41.9,30.31,SSW,202,4.0,10.0,83,0.00,,,0.00,meteohub,2013-11-24 11:47:00,
2013-11-24 11:52:00,46.9,42.1,30.31,NNE,22,2.0,7.0,83,0.00,,,0.00,meteohub,2013-11-24 11:52:00,
2013-11-24 11:57:00,47.1,41.9,30.31,NNE,22,4.0,7.0,82,0.00,,,0.00,meteohub,2013-11-24 11:57:00,
2013-11-24 12:02:00,47.5,42.3,30.31,North,0,2.0,7.0,82,0.00,,,0.00,meteohub,2013-11-24 12:02:00,
2013-11-24 12:07:00,47.7,41.7,30.31,NNE,22,5.0,5.0,80,0.00,,,0.00,meteohub,2013-11-24 12:07:00,
2013-11-24 12:12:00,47.7,41.5,30.31,North,0,4.0,5.0,79,0.00,,,0.00,meteohub,2013-11-24 12:12:00,
2013-11-24 12:17:00,47.7,41.2,30.31,NNE,22,3.0,5.0,78,0.00,,,0.00,meteohub,2013-11-24 12:17:00,
2013-11-24 12:22:00,47.7,41.2,30.31,North,0,4.0,6.0,78,0.00,,,0.00,meteohub,2013-11-24 12:22:00,
2013-11-24 12:27:00,47.5,41.0,30.31,North,0,3.0,7.0,78,0.00,,,0.00,meteohub,2013-11-24 12:27:00,
2013-11-24 12:32:00,47.5,40.6,30.31,NE,45,4.0,7.0,77,0.00,,,0.00,meteohub,2013-11-24 12:32:00,
2013-11-24 12:37:00,47.3,40.8,30.31,NNE,22,4.0,8.0,78,0.00,,,0.00,meteohub,2013-11-24 12:37:00,
2013-11-24 12:42:00,47.3,40.8,30.31,North,0,4.0,8.0,78,0.00,,,0.00,meteohub,2013-11-24 12:42:00,
2013-11-24 12:47:00,47.3,40.8,30.31,North,0,3.0,8.0,78,0.00,,,0.00,meteohub,2013-11-24 12:47:00,
2013-11-24 12:52:00,47.3,40.8,30.31,North,0,2.0,6.0,78,0.00,,,0.00,meteohub,2013-11-24 12:52:00,
2013-11-24 12:57:00,47.3,40.8,30.31,North,0,5.0,6.0,78,0.00,,,0.00,meteohub,2013-11-24 12:57:00,
2013-11-24 13:02:00,47.5,41.4,30.31,North,0,2.0,6.0,79,0.00,,,0.00,meteohub,2013-11-24 13:02:00,
2013-11-24 13:07:00,47.3,41.5,30.31,ENE,68,4.0,5.0,80,0.00,,,0.00,meteohub,2013-11-24 13:07:00,
2013-11-24 13:12:00,47.3,41.7,30.31,NNE,22,6.0,6.0,81,0.00,,,0.00,meteohub,2013-11-24 13:12:00,
2013-11-24 13:17:00,47.3,41.7,30.31,North,0,6.0,8.0,81,0.00,,,0.00,meteohub,2013-11-24 13:17:00,
2013-11-24 13:22:00,47.5,41.9,30.31,NNE,22,5.0,8.0,81,0.00,,,0.00,meteohub,2013-11-24 13:22:00,
2013-11-24 13:27:00,47.5,41.9,30.31,NNE,22,3.0,8.0,81,0.00,,,0.00,meteohub,2013-11-24 13:27:00,
2013-11-24 13:32:00,47.5,41.9,30.31,NNE,22,2.0,7.0,81,0.00,,,0.00,meteohub,2013-11-24 13:32:00,
2013-11-24 13:37:00,47.5,41.7,30.31,North,0,4.0,8.0,80,0.00,,,0.00,meteohub,2013-11-24 13:37:00,
2013-11-24 13:42:00,47.5,41.7,30.31,NNE,22,4.0,8.0,80,0.00,,,0.00,meteohub,2013-11-24 13:42:00,
2013-11-24 13:47:00,47.5,41.7,30.31,North,0,3.0,8.0,80,0.00,,,0.00,meteohub,2013-11-24 13:47:00,
2013-11-24 13:52:00,47.5,41.7,30.31,North,0,3.0,8.0,80,0.00,,,0.00,meteohub,2013-11-24 13:52:00,
2013-11-24 13:57:00,47.3,41.7,30.31,NNE,22,4.0,8.0,81,0.00,,,0.00,meteohub,2013-11-24 13:57:00,
2013-11-24 14:02:00,47.1,41.9,30.31,North,0,4.0,8.0,82,0.00,,,0.00,meteohub,2013-11-24 14:02:00,
2013-11-24 14:07:00,46.9,42.1,30.31,NNE,22,4.0,6.0,83,0.00,,,0.00,meteohub,2013-11-24 14:07:00,
2013-11-24 14:12:00,46.8,42.3,30.31,NNE,22,5.0,6.0,84,0.00,,,0.00,meteohub,2013-11-24 14:12:00,
2013-11-24 14:17:00,46.8,42.4,30.31,NE,45,6.0,7.0,85,0.00,,,0.00,meteohub,2013-11-24 14:17:00,
2013-11-24 14:22:00,46.8,42.8,30.31,North,0,4.0,7.0,86,0.00,,,0.00,meteohub,2013-11-24 14:22:00,
2013-11-24 14:27:00,46.8,42.8,30.31,NNE,22,3.0,7.0,86,0.00,,,0.00,meteohub,2013-11-24 14:27:00,
2013-11-24 14:32:00,46.8,42.8,30.31,SW,225,2.0,8.0,86,0.00,,,0.00,meteohub,2013-11-24 14:32:00,
2013-11-24 14:37:00,46.6,42.6,30.31,North,0,3.0,8.0,86,0.00,,,0.00,meteohub,2013-11-24 14:37:00,
2013-11-24 14:42:00,46.6,42.6,30.31,NNE,22,4.0,8.0,86,0.00,,,0.00,meteohub,2013-11-24 14:42:00,
2013-11-24 14:47:00,46.2,42.8,30.31,NW,315,3.0,8.0,88,0.00,,,0.00,meteohub,2013-11-24 14:47:00,
2013-11-24 14:52:00,45.9,42.8,30.34,ENE,68,3.0,8.0,89,0.00,,,0.00,meteohub,2013-11-24 14:52:00,
2013-11-24 14:57:00,45.7,42.6,30.34,NW,315,4.0,8.0,89,0.00,,,0.00,meteohub,2013-11-24 14:57:00,
2013-11-24 15:02:00,45.3,41.9,30.34,South,180,2.0,8.0,88,0.00,,,0.00,meteohub,2013-11-24 15:02:00,
2013-11-24 15:07:00,45.3,41.9,30.34,North,0,3.0,6.0,88,0.00,,,0.00,meteohub,2013-11-24 15:07:00,
2013-11-24 15:12:00,45.3,41.7,30.34,North,0,4.0,7.0,87,0.00,,,0.00,meteohub,2013-11-24 15:12:00,
2013-11-24 15:17:00,45.3,41.7,30.34,North,0,3.0,7.0,87,0.00,,,0.00,meteohub,2013-11-24 15:17:00,
2013-11-24 15:22:00,45.5,41.5,30.34,North,0,3.0,7.0,86,0.00,,,0.00,meteohub,2013-11-24 15:22:00,
2013-11-24 15:27:00,45.5,41.5,30.34,North,0,3.0,6.0,86,0.00,,,0.00,meteohub,2013-11-24 15:27:00,
2013-11-24 15:32:00,45.7,41.4,30.34,North,0,0.0,6.0,85,0.00,,,0.00,meteohub,2013-11-24 15:32:00,
2013-11-24 15:37:00,45.7,41.2,30.34,North,0,5.0,8.0,84,0.00,,,0.00,meteohub,2013-11-24 15:37:00,
2013-11-24 15:42:00,45.7,41.2,30.34,NNW,338,3.0,8.0,84,0.00,,,0.00,meteohub,2013-11-24 15:42:00,
2013-11-24 15:47:00,45.7,40.8,30.34,NNW,338,0.0,5.0,83,0.00,,,0.00,meteohub,2013-11-24 15:47:00,
2013-11-24 15:52:00,45.9,41.0,30.34,NNE,22,4.0,5.0,83,0.00,,,0.00,meteohub,2013-11-24 15:52:00,
2013-11-24 15:57:00,45.9,41.0,30.34,ESE,112,0.0,6.0,83,0.00,,,0.00,meteohub,2013-11-24 15:57:00,
2013-11-24 16:02:00,45.9,41.0,30.34,North,0,3.0,6.0,83,0.00,,,0.00,meteohub,2013-11-24 16:02:00,
2013-11-24 16:07:00,45.9,41.0,30.34,WNW,292,0.0,5.0,83,0.00,,,0.00,meteohub,2013-11-24 16:07:00,
2013-11-24 16:12:00,46.0,41.2,30.34,North,0,0.0,7.0,83,0.00,,,0.00,meteohub,2013-11-24 16:12:00,
2013-11-24 16:17:00,46.0,41.2,30.34,North,0,0.0,7.0,83,0.00,,,0.00,meteohub,2013-11-24 16:17:00,
2013-11-24 16:22:00,46.0,40.8,30.34,NNE,22,3.0,6.0,82,0.00,,,0.00,meteohub,2013-11-24 16:22:00,
2013-11-24 16:27:00,45.9,40.1,30.34,NNW,338,3.0,6.0,80,0.00,,,0.00,meteohub,2013-11-24 16:27:00,
2013-11-24 16:32:00,45.7,38.8,30.34,North,0,3.0,8.0,77,0.00,,,0.00,meteohub,2013-11-24 16:32:00,
2013-11-24 16:37:00,45.5,38.5,30.37,North,0,4.0,8.0,76,0.00,,,0.00,meteohub,2013-11-24 16:37:00,
2013-11-24 16:42:00,45.3,37.6,30.37,NNE,22,4.0,8.0,74,0.00,,,0.00,meteohub,2013-11-24 16:42:00,
2013-11-24 16:47:00,45.3,37.2,30.37,East,90,2.0,8.0,73,0.00,,,0.00,meteohub,2013-11-24 16:47:00,
2013-11-24 16:52:00,45.3,37.2,30.34,NNW,338,4.0,8.0,73,0.00,,,0.00,meteohub,2013-11-24 16:52:00,
2013-11-24 16:57:00,45.5,37.4,30.34,NNW,338,5.0,10.0,73,0.00,,,0.00,meteohub,2013-11-24 16:57:00,
2013-11-24 17:02:00,45.7,37.2,30.34,North,0,2.0,10.0,72,0.00,,,0.00,meteohub,2013-11-24 17:02:00,
2013-11-24 17:07:00,45.7,36.5,30.37,NNW,338,3.0,10.0,70,0.00,,,0.00,meteohub,2013-11-24 17:07:00,
2013-11-24 17:12:00,45.7,35.8,30.37,NNW,338,4.0,9.0,68,0.00,,,0.00,meteohub,2013-11-24 17:12:00,
2013-11-24 17:17:00,45.9,36.0,30.37,North,0,6.0,9.0,68,0.00,,,0.00,meteohub,2013-11-24 17:17:00,
2013-11-24 17:22:00,45.9,36.0,30.37,East,90,3.0,8.0,68,0.00,,,0.00,meteohub,2013-11-24 17:22:00,
2013-11-24 17:27:00,45.9,36.3,30.37,NE,45,2.0,6.0,69,0.00,,,0.00,meteohub,2013-11-24 17:27:00,
2013-11-24 17:32:00,45.9,36.3,30.37,NNE,22,3.0,6.0,69,0.00,,,0.00,meteohub,2013-11-24 17:32:00,
2013-11-24 17:37:00,45.9,37.0,30.37,SSW,202,3.0,6.0,71,0.00,,,0.00,meteohub,2013-11-24 17:37:00,
2013-11-24 17:42:00,45.7,37.2,30.37,NNW,338,3.0,8.0,72,0.00,,,0.00,meteohub,2013-11-24 17:42:00,
2013-11-24 17:47:00,45.5,37.0,30.37,North,0,5.0,9.0,72,0.00,,,0.00,meteohub,2013-11-24 17:47:00,
2013-11-24 17:52:00,45.5,37.0,30.37,NE,45,3.0,9.0,72,0.00,,,0.00,meteohub,2013-11-24 17:52:00,
2013-11-24 17:57:00,45.3,36.5,30.37,NNE,22,0.0,9.0,71,0.00,,,0.00,meteohub,2013-11-24 17:57:00,
2013-11-24 18:02:00,45.3,36.5,30.37,North,0,4.0,7.0,71,0.00,,,0.00,meteohub,2013-11-24 18:02:00,
2013-11-24 18:07:00,45.1,36.0,30.40,NNE,22,5.0,7.0,70,0.00,,,0.00,meteohub,2013-11-24 18:07:00,
2013-11-24 18:12:00,45.0,35.1,30.40,NNE,22,5.0,6.0,68,0.00,,,0.00,meteohub,2013-11-24 18:12:00,
2013-11-24 18:17:00,45.0,34.7,30.40,NNE,22,3.0,6.0,67,0.00,,,0.00,meteohub,2013-11-24 18:17:00,
2013-11-24 18:22:00,44.8,34.5,30.40,NE,45,3.0,6.0,67,0.00,,,0.00,meteohub,2013-11-24 18:22:00,
2013-11-24 18:27:00,44.8,34.2,30.40,North,0,3.0,6.0,66,0.00,,,0.00,meteohub,2013-11-24 18:27:00,
2013-11-24 18:32:00,44.8,34.2,30.40,North,0,4.0,8.0,66,0.00,,,0.00,meteohub,2013-11-24 18:32:00,
2013-11-24 18:37:00,45.0,34.0,30.40,ENE,68,4.0,8.0,65,0.00,,,0.00,meteohub,2013-11-24 18:37:00,
2013-11-24 18:42:00,45.0,34.0,30.40,North,0,3.0,8.0,65,0.00,,,0.00,meteohub,2013-11-24 18:42:00,
2013-11-24 18:47:00,44.8,33.8,30.40,WNW,292,3.0,8.0,65,0.00,,,0.00,meteohub,2013-11-24 18:47:00,
2013-11-24 18:52:00,44.8,33.8,30.40,North,0,4.0,7.0,65,0.00,,,0.00,meteohub,2013-11-24 18:52:00,
2013-11-24 18:57:00,44.6,34.0,30.40,North,0,5.0,7.0,66,0.00,,,0.00,meteohub,2013-11-24 18:57:00,
2013-11-24 19:02:00,44.4,34.5,30.40,North,0,4.0,6.0,68,0.00,,,0.00,meteohub,2013-11-24 19:02:00,
2013-11-24 19:07:00,44.2,34.7,30.43,North,0,4.0,6.0,69,0.00,,,0.00,meteohub,2013-11-24 19:07:00,
2013-11-24 19:12:00,44.1,34.5,30.43,NNE,22,2.0,6.0,69,0.00,,,0.00,meteohub,2013-11-24 19:12:00,
2013-11-24 19:17:00,44.1,34.9,30.43,NNW,338,4.0,6.0,70,0.00,,,0.00,meteohub,2013-11-24 19:17:00,
2013-11-24 19:24:00,43.9,34.7,30.43,ESE,112,3.0,6.0,70,0.00,,,0.00,meteohub,2013-11-24 19:24:00,
2013-11-24 19:30:00,43.9,34.7,30.43,NNE,22,5.0,6.0,70,0.00,,,0.00,meteohub,2013-11-24 19:30:00,
2013-11-24 19:36:00,43.9,35.1,30.43,NNE,22,4.0,6.0,71,0.00,,,0.00,meteohub,2013-11-24 19:36:00,
2013-11-24 19:42:00,43.7,35.2,30.43,North,0,4.0,6.0,72,0.00,,,0.00,meteohub,2013-11-24 19:42:00,
2013-11-24 19:47:00,43.7,35.2,30.43,North,0,3.0,6.0,72,0.00,,,0.00,meteohub,2013-11-24 19:47:00,
2013-11-24 19:52:00,43.5,35.4,30.43,NNW,338,0.0,6.0,73,0.00,,,0.00,meteohub,2013-11-24 19:52:00,
2013-11-24 19:57:00,43.0,34.9,30.43,NNW,338,3.0,6.0,73,0.00,,,0.00,meteohub,2013-11-24 19:57:00,
2013-11-24 20:02:00,42.8,35.1,30.43,NNE,22,0.0,6.0,74,0.00,,,0.00,meteohub,2013-11-24 20:02:00,
2013-11-24 20:07:00,42.4,35.1,30.43,NE,45,4.0,6.0,75,0.00,,,0.00,meteohub,2013-11-24 20:07:00,
2013-11-24 20:12:00,42.3,35.2,30.43,North,0,3.0,5.0,76,0.00,,,0.00,meteohub,2013-11-24 20:12:00,
2013-11-24 20:17:00,42.1,35.1,30.43,NNW,338,0.0,5.0,76,0.00,,,0.00,meteohub,2013-11-24 20:17:00,
2013-11-24 20:22:00,41.7,35.1,30.43,North,0,0.0,5.0,77,0.00,,,0.00,meteohub,2013-11-24 20:22:00,
2013-11-24 20:27:00,41.7,35.1,30.43,NNW,338,0.0,5.0,77,0.00,,,0.00,meteohub,2013-11-24 20:27:00,
2013-11-24 20:32:00,41.5,34.9,30.43,North,0,4.0,5.0,77,0.00,,,0.00,meteohub,2013-11-24 20:32:00,
2013-11-24 20:37:00,41.7,35.1,30.43,North,0,4.0,6.0,77,0.00,,,0.00,meteohub,2013-11-24 20:37:00,
2013-11-24 20:42:00,42.1,35.4,30.43,NNE,22,4.0,6.0,77,0.00,,,0.00,meteohub,2013-11-24 20:42:00,
2013-11-24 20:47:00,41.9,35.2,30.43,North,0,2.0,7.0,77,0.00,,,0.00,meteohub,2013-11-24 20:47:00,
2013-11-24 20:52:00,41.7,35.1,30.46,NNE,22,2.0,7.0,77,0.00,,,0.00,meteohub,2013-11-24 20:52:00,
2013-11-24 20:57:00,41.5,34.9,30.46,North,0,3.0,7.0,77,0.00,,,0.00,meteohub,2013-11-24 20:57:00,
2013-11-24 21:02:00,41.5,34.9,30.46,NNE,22,0.0,6.0,77,0.00,,,0.00,meteohub,2013-11-24 21:02:00,
2013-11-24 21:07:00,41.4,34.7,30.43,North,0,4.0,6.0,77,0.00,,,0.00,meteohub,2013-11-24 21:07:00,
2013-11-24 21:12:00,41.2,34.9,30.43,NNW,338,0.0,5.0,78,0.00,,,0.00,meteohub,2013-11-24 21:12:00,
2013-11-24 21:17:00,41.2,34.9,30.43,North,0,3.0,5.0,78,0.00,,,0.00,meteohub,2013-11-24 21:17:00,
2013-11-24 21:22:00,41.2,35.2,30.46,North,0,3.0,4.0,79,0.00,,,0.00,meteohub,2013-11-24 21:22:00,
2013-11-24 21:27:00,41.2,35.2,30.46,NW,315,0.0,4.0,79,0.00,,,0.00,meteohub,2013-11-24 21:27:00,
2013-11-24 21:32:00,41.4,35.6,30.46,NE,45,0.0,4.0,80,0.00,,,0.00,meteohub,2013-11-24 21:32:00,
2013-11-24 21:37:00,41.5,35.6,30.43,NNE,22,4.0,8.0,79,0.00,,,0.00,meteohub,2013-11-24 21:37:00,
2013-11-24 21:42:00,41.5,35.6,30.43,North,0,3.0,8.0,79,0.00,,,0.00,meteohub,2013-11-24 21:42:00,
2013-11-24 21:47:00,41.7,35.8,30.43,NNW,338,0.0,8.0,79,0.00,,,0.00,meteohub,2013-11-24 21:47:00,
2013-11-24 21:52:00,41.7,35.8,30.46,North,0,3.0,6.0,79,0.00,,,0.00,meteohub,2013-11-24 21:52:00,
2013-11-24 21:57:00,41.9,36.0,30.46,NE,45,4.0,6.0,79,0.00,,,0.00,meteohub,2013-11-24 21:57:00,
2013-11-24 22:03:00,41.9,36.0,30.46,North,0,4.0,6.0,79,0.00,,,0.00,meteohub,2013-11-24 22:03:00,
2013-11-24 22:09:00,41.9,36.0,30.46,North,0,3.0,5.0,79,0.00,,,0.00,meteohub,2013-11-24 22:09:00,
2013-11-24 22:15:00,41.9,36.0,30.46,North,0,4.0,5.0,79,0.00,,,0.00,meteohub,2013-11-24 22:15:00,
2013-11-24 22:21:00,41.9,36.0,30.46,NNE,22,3.0,8.0,79,0.00,,,0.00,meteohub,2013-11-24 22:21:00,
2013-11-24 22:27:00,41.9,35.6,30.46,North,0,3.0,8.0,78,0.00,,,0.00,meteohub,2013-11-24 22:27:00,
2013-11-24 22:32:00,41.9,35.6,30.46,NNE,22,3.0,8.0,78,0.00,,,0.00,meteohub,2013-11-24 22:32:00,
2013-11-24 22:37:00,41.9,36.0,30.46,North,0,3.0,8.0,79,0.00,,,0.00,meteohub,2013-11-24 22:37:00,
2013-11-24 22:42:00,41.9,36.0,30.46,North,0,0.0,8.0,79,0.00,,,0.00,meteohub,2013-11-24 22:42:00,
2013-11-24 22:47:00,41.7,36.0,30.46,North,0,4.0,5.0,80,0.00,,,0.00,meteohub,2013-11-24 22:47:00,
2013-11-24 22:52:00,41.7,36.0,30.46,North,0,4.0,6.0,80,0.00,,,0.00,meteohub,2013-11-24 22:52:00,
2013-11-24 22:57:00,41.7,36.3,30.46,NW,315,3.0,6.0,81,0.00,,,0.00,meteohub,2013-11-24 22:57:00,
2013-11-24 23:02:00,41.7,36.3,30.46,NNE,22,0.0,6.0,81,0.00,,,0.00,meteohub,2013-11-24 23:02:00,
2013-11-24 23:07:00,41.5,36.1,30.46,NW,315,3.0,6.0,81,0.00,,,0.00,meteohub,2013-11-24 23:07:00,
2013-11-24 23:12:00,41.2,35.8,30.46,NNE,22,0.0,4.0,81,0.00,,,0.00,meteohub,2013-11-24 23:12:00,
2013-11-24 23:17:00,41.0,35.6,30.46,North,0,0.0,4.0,81,0.00,,,0.00,meteohub,2013-11-24 23:17:00,
2013-11-24 23:22:00,40.5,35.4,30.46,NNE,22,3.0,4.0,82,0.00,,,0.00,meteohub,2013-11-24 23:22:00,
2013-11-24 23:27:00,40.3,35.6,30.46,NNW,338,0.0,4.0,83,0.00,,,0.00,meteohub,2013-11-24 23:27:00,
2013-11-24 23:32:00,40.3,35.8,30.46,NNW,338,0.0,4.0,84,0.00,,,0.00,meteohub,2013-11-24 23:32:00,
2013-11-24 23:37:00,40.1,36.0,30.46,North,0,0.0,4.0,85,0.00,,,0.00,meteohub,2013-11-24 23:37:00,
2013-11-24 23:42:00,39.9,35.8,30.46,NNE,22,0.0,4.0,85,0.00,,,0.00,meteohub,2013-11-24 23:42:00,
2013-11-24 23:47:00,39.7,36.0,30.46,WNW,292,0.0,4.0,86,0.00,,,0.00,meteohub,2013-11-24 23:47:00,
2013-11-24 23:52:00,39.9,36.3,30.46,NNE,22,3.0,4.0,87,0.00,,,0.00,meteohub,2013-11-24 23:52:00,
2013-11-24 23:57:00,39.9,36.3,30.46,NNE,22,0.0,4.0,87,0.00,,,0.00,meteohub,2013-11-24 23:57:00,